Temp
-9 -9 -7 -7 -9 -8 -8 -6 -6 -6 -6 -6 -6 -6 -6 -6 -5 -4 -5 -4 -5 -5 -5 -6 -6 -7 -6 -6 -6 -6 -6 -6 -6 -6 -7 -7 -7 -6 -6 -6 -6 -6 -6 -6
-9 -9 -10 -9 -10 -9 -8 -8 -7 -7 -7 -6 -6 -5 -5 -6 -6 -5 -5 -4 -4 -4 -5 -5 -5 -6 -7 -5 -6 -6 -6 -6 -6 -6 -6 -6 -7 -7 -6 -6 -6 -6 -6 -7
-9 -10 -11 -11 -11 -10 -8 -8 -7 -7 -7 -8 -7 -6 -6 -6 -6 -6 -5 -4 -4 -4 -6 -6 -5 -6 -6 -6 -5 -6 -6 -6 -6 -6 -6 -6 -6 -6 -6 -6 -6 -6 -6 -6
-10 -10 -11 -12 -10 -10 -9 -8 -7 -8 -7 -7 -6 -6 -6 -6 -6 -6 -5 -4 -5 -4 -5 -5 -5 -6 -6 -6 -5 -6 -6 -6 -6 -6 -6 -6 -6 -6 -6 -6 -6 -6 -6 -6
-12 -11 -11 -11 -10 -9 -9 -9 -8 -7 -7 -7 -6 -6 -6 -6 -6 -5 -5 -4 -5 -4 -4 -5 -5 -5 -6 -6 -6 -6 -6 -6 -6 -6 -6 -6 -6 -6 -6 -6 -6 -6 -6 -6
-11 -11 -11 -12 -11 -11 -10 -10 -9 -8 -8 -7 -7 -7 -6 -6 -6 -6 -5 -6 -7 -4 -5 -5 -4 -5 -6 -5 -6 -6 -6 -6 -6 -7 -6 -6 -6 -6 -6 -6 -6 -6 -7 -6
-12 -12 -12 -12 -12 -12 -11 -10 -9 -8 -8 -8 -7 -7 -6 -6 -6 -5 -6 -6 -6 -6 -5 -5 -5 -5 -6 -6 -5 -6 -6 -6 -6 -7 -7 -7 -6 -6 -6 -6 -6 -6 -6 -6
-12 -12 -12 -11 -11 -11 -10 -10 -10 -9 -9 -9 -7 -7 -7 -6 -6 -5 -5 -6 -6 -6 -5 -5 -6 -5 -5 -5 -5 -6 -5 -6 -6 -6 -7 -7 -7 -7 -6 -7 -6 -6 -7 -7
-13 -12 -12 -12 -11 -10 -10 -11 -10 -10 -9 -9 -8 -8 -7 -7 -7 -6 -5 -4 -6 -6 -6 -5 -6 -6 -6 -5 -5 -6 -6 -6 -7 -6 -6 -6 -7 -6 -6 -6 -6 -7 -6 -6
-12 -12 -12 -11 -12 -11 -10 -11 -10 -9 -9 -9 -8 -9 -8 -7 -7 -7 -6 -4 -6 -6 -6 -7 -6 -7 -6 -6 -5 -6 -5 -6 -6 -7 -6 -7 -6 -6 -6 -6 -6 -6 -6 -6
-12 -12 -13 -12 -12 -11 -11 -11 -10 -10 -10 -11 -10 -9 -8 -8 -7 -7 -7 -6 -6 -6 -6 -6 -6 -6 -7 -7 -6 -6 -6 -6 -6 -6 -6 -6 -6 -6 -7 -7 -6 -6 -6 -6
-12 -12 -12 -12 -12 -12 -12 -12 -11 -10 -10 -10 -10 -9 -8 -8 -7 -7 -7 -7 -7 -7 -6 -7 -7 -7 -6 -6 -7 -7 -6 -6 -7 -6 -6 -6 -6 -6 -6 -7 -6 -6 -7 -6
-12 -12 -12 -12 -12 -12 -12 -12 -11 -11 -10 -10 -10 -9 -9 -8 -6 -6 -7 -7 -7 -6 -5 -6 -7 -6 -6 -6 -7 -8 -7 -6 -6 -6 -6 -6 -6 -6 -6 -6 -6 -6 -6 -7
-13 -12 -12 -12 -12 -12 -12 -12 -12 -11 -10 -9 -10 -9 -9 -8 -7 -6 -7 -7 -7 -7 -7 -5 -5 -6 -7 -7 -7 -8 -7 -7 -7 -6 -6 -6 -6 -6 -5 -6 -6 -5 -5 -6
-13 -13 -12 -12 -12 -12 -11 -12 -12 -11 -10 -9 -9 -10 -10 -9 -8 -7 -6 -7 -7 -7 -7 -8 -8 -6 -6 -6 -6 -7 -7 -7 -7 -7 -7 -6 -6 -6 -6 -6 -6 -6 -5 -6
-12 -13 -13 -13 -12 -13 -12 -12 -12 -11 -10 -10 -9 -9 -9 -9 -7 -7 -7 -7 -8 -7 -7 -7 -8 -8 -8 -8 -6 -7 -7 -7 -6 -7 -7 -7 -6 -6 -7 -7 -6 -6 -6 -6
-13 -13 -13 -13 -14 -12 -12 -12 -12 -12 -11 -11 -9 -10 -9 -9 -9 -8 -7 -8 -8 -8 -8 -7 -6 -6 -7 -7 -5 -6 -6 -6 -7 -6 -6 -7 -6 -6 -7 -6 -7 -6 -6 -6
-14 -13 -13 -14 -14 -14 -13 -13 -12 -12 -11 -11 -11 -10 -10 -9 -9 -8 -8 -7 -8 -8 -8 -8 -8 -7 -7 -7 -6 -7 -6 -7 -6 -7 -6 -6 -7 -6 -6 -7 -7 -6 -6 -6
-13 -14 -14 -14 -13 -14 -14 -14 -13 -12 -12 -11 -11 -11 -10 -9 -10 -10 -9 -8 -9 -9 -8 -8 -7 -7 -7 -7 -7 -7 -6 -7 -6 -6 -7 -7 -8 -7 -7 -7 -6 -6 -6 -5
-14 -14 -15 -14 -14 -14 -14 -14 -13 -12 -12 -12 -12 -11 -11 -11 -11 -11 -10 -10 -9 -9 -9 -8 -8 -7 -7 -7 -7 -6 -7 -8 -8 -7 -8 -7 -7 -7 -7 -8 -7 -7 -6 -5
-14 -14 -14 -14 -14 -14 -14 -14 -14 -13 -12 -13 -12 -11 -11 -12 -11 -11 -10 -10 -11 -10 -10 -8 -9 -9 -9 -8 -8 -7 -7 -7 -7 -8 -8 -7 -7 -7 -8 -9 -8 -7 -7 -7
-14 -14 -14 -14 -15 -14 -14 -14 -14 -14 -13 -13 -13 -12 -12 -12 -11 -11 -11 -11 -11 -11 -10 -10 -9 -9 -9 -9 -8 -8 -8 -8 -9 -8 -9 -9 -8 -8 -9 -10 -9 -8 -8 -7
-14 -14 -14 -14 -14 -14 -14 -14 -14 -14 -14 -13 -13 -13 -12 -12 -12 -12 -12 -12 -12 -12 -12 -11 -11 -11 -10 -9 -10 -9 -9 -9 -9 -10 -10 -10 -10 -10 -10 -10 -10 -9 -9 -8
-14 -14 -14 -14 -14 -14 -15 -15 -15 -14 -14 -14 -13 -13 -13 -13 -13 -12 -13 -12 -13 -12 -12 -12 -11 -11 -11 -11 -10 -11 -10 -10 -11 -11 -11 -11 -10 -10 -10 -10 -10 -9 -9 -9
-14 -14 -14 -14 -15 -15 -15 -15 -15 -14 -14 -13 -14 -13 -13 -13 -13 -13 -13 -12 -12 -12 -11 -11 -11 -11 -11 -11 -12 -12 -13 -12 -12 -11 -11 -11 -10 -10 -10 -10 -10 -10 -10 -10
-15 -15 -15 -15 -15 -15 -15 -15 -15 -15 -15 -15 -14 -14 -13 -13 -13 -13 -13 -13 -12 -13 -13 -13 -12 -12 -12 -12 -12 -13 -13 -12 -12 -11 -11 -11 -10 -10 -10 -10 -11 -11 -10 -10
Height
5843 5847 5852 5864 5866 5863 5871 5875 5876 5877 5875 5872 5883 5883 5886 5890 5894 5895 5898 5902 5905 5908 5912 5914 5916 5917 5918 5919 5921 5921 5922 5925 5926 5927 5928 5930 5933 5933 5934 5936 5936 5937 5935 5937
5839 5848 5854 5857 5858 5862 5868 5869 5871 5873 5873 5875 5876 5881 5882 5886 5890 5893 5896 5901 5904 5907 5913 5913 5916 5918 5920 5921 5921 5923 5924 5926 5927 5929 5930 5932 5933 5935 5936 5937 5938 5938 5938 5939
5840 5848 5849 5851 5857 5861 5865 5867 5869 5871 5872 5873 5873 5875 5878 5882 5886 5890 5892 5898 5902 5906 5911 5913 5916 5918 5918 5920 5922 5923 5925 5927 5928 5931 5933 5934 5935 5937 5939 5941 5942 5942 5941 5943
5835 5841 5846 5847 5854 5858 5862 5865 5868 5869 5871 5870 5871 5872 5874 5877 5882 5885 5890 5896 5900 5906 5910 5910 5915 5916 5919 5920 5922 5926 5925 5927 5928 5931 5933 5934 5936 5938 5939 5942 5944 5944 5944 5945
5834 5840 5845 5847 5854 5852 5859 5861 5865 5867 5865 5867 5869 5869 5868 5872 5876 5881 5888 5893 5898 5903 5908 5909 5912 5916 5919 5921 5921 5925 5926 5927 5929 5932 5934 5936 5936 5938 5941 5942 5944 5946 5946 5946
5829 5835 5841 5844 5847 5850 5854 5858 5860 5864 5863 5864 5867 5868 5866 5867 5872 5877 5883 5888 5893 5898 5905 5908 5909 5915 5918 5921 5921 5923 5926 5927 5927 5929 5933 5936 5938 5939 5941 5943 5944 5946 5946 5948
5828 5834 5837 5841 5844 5847 5852 5856 5859 5861 5860 5862 5864 5866 5864 5865 5865 5868 5875 5882 5888 5893 5898 5905 5908 5911 5916 5920 5922 5922 5925 5928 5929 5928 5931 5934 5937 5939 5941 5943 5945 5946 5947 5948
5830 5834 5834 5841 5844 5848 5854 5855 5856 5857 5859 5859 5860 5859 5861 5862 5863 5863 5867 5872 5881 5887 5892 5900 5905 5908 5913 5918 5921 5924 5925 5927 5929 5930 5931 5933 5936 5938 5940 5942 5943 5945 5946 5947
5827 5833 5837 5840 5844 5849 5851 5855 5853 5855 5857 5857 5858 5858 5859 5860 5863 5862 5864 5864 5873 5882 5888 5895 5903 5906 5909 5915 5918 5922 5925 5926 5929 5929 5930 5932 5933 5937 5940 5941 5941 5942 5945 5946
5827 5831 5833 5838 5839 5843 5847 5850 5853 5853 5855 5856 5858 5860 5859 5860 5860 5861 5858 5860 5865 5877 5882 5889 5898 5902 5908 5911 5915 5918 5923 5924 5927 5930 5930 5931 5934 5936 5938 5939 5939 5940 5942 5944
5824 5830 5833 5836 5838 5842 5845 5847 5849 5851 5853 5854 5856 5859 5860 5861 5861 5858 5857 5860 5864 5874 5880 5885 5891 5897 5903 5907 5911 5914 5919 5922 5925 5926 5929 5930 5931 5934 5936 5938 5939 5940 5940 5941
5826 5828 5830 5832 5834 5838 5842 5844 5845 5846 5851 5852 5853 5859 5859 5859 5861 5861 5859 5859 5864 5869 5875 5880 5885 5892 5897 5904 5908 5910 5912 5916 5919 5922 5924 5928 5930 5931 5934 5936 5937 5938 5938 5939
5824 5826 5828 5828 5832 5835 5836 5837 5838 5843 5847 5849 5851 5858 5857 5857 5860 5861 5862 5862 5863 5867 5872 5876 5880 5888 5892 5898 5905 5907 5909 5911 5916 5919 5922 5923 5924 5926 5930 5932 5933 5935 5936 5937
5820 5822 5823 5825 5824 5829 5828 5831 5833 5838 5843 5847 5850 5854 5856 5858 5859 5861 5862 5863 5864 5866 5868 5872 5876 5883 5888 5892 5899 5902 5904 5906 5908 5911 5916 5918 5919 5922 5924 5928 5930 5930 5932 5933
5814 5817 5819 5819 5820 5823 5825 5827 5829 5834 5838 5844 5847 5849 5851 5849 5854 5857 5861 5863 5864 5866 5869 5872 5872 5876 5882 5887 5891 5895 5898 5901 5903 5905 5908 5912 5914 5915 5919 5922 5924 5924 5925 5927
5810 5810 5814 5815 5814 5817 5822 5823 5826 5830 5834 5838 5843 5844 5845 5845 5851 5855 5856 5857 5862 5863 5865 5869 5872 5872 5876 5881 5886 5888 5892 5897 5897 5898 5901 5905 5909 5910 5910 5913 5917 5919 5920 5922
5805 5804 5806 5808 5808 5811 5818 5819 5822 5827 5830 5833 5837 5838 5837 5839 5846 5850 5853 5853 5856 5858 5863 5868 5869 5869 5871 5875 5878 5886 5887 5890 5891 5892 5895 5898 5900 5903 5903 5905 5909 5910 5913 5916
5799 5801 5802 5802 5803 5807 5810 5813 5814 5821 5826 5828 5832 5833 5833 5833 5837 5843 5845 5847 5849 5854 5858 5862 5863 5853 5866 5869 5872 5877 5879 5883 5880 5884 5886 5888 5892 5893 5895 5896 5899 5903 5905 5908
5796 5796 5798 5799 5801 5803 5805 5808 5809 5812 5818 5821 5824 5828 5829 5832 5830 5835 5837 5839 5841 5845 5848 5852 5855 5857 5859 5861 5862 5866 5868 5871 5872 5873 5876 5880 5884 5887 5887 5888 5892 5895 5898 5899
5792 5792 5794 5794 5795 5797 5797 5799 5802 5805 5809 5812 5816 5818 5823 5824 5825 5827 5829 5831 5834 5838 5843 5847 5847 5848 5849 5837 5848 5849 5855 5859 5864 5867 5870 5873 5875 5876 5879 5881 5884 5888 5890 5893
5785 5787 5789 5789 5791 5792 5793 5794 5795 5799 5805 5806 5807 5811 5812 5816 5820 5820 5822 5825 5825 5830 5835 5838 5841 5846 5848 5848 5849 5850 5853 5855 5857 5857 5862 5865 5867 5869 5870 5875 5879 5882 5885 5886
5783 5784 5784 5784 5785 5788 5786 5788 5791 5791 5794 5799 5801 5802 5804 5807 5811 5813 5818 5820 5821 5823 5828 5833 5834 5836 5838 5842 5846 5846 5847 5847 5847 5852 5857 5859 5860 5863 5866 5870 5875 5875 5877 5879
5781 5782 5781 5782 5782 5782 5783 5783 5785 5785 5787 5791 5793 5794 5795 5798 5800 5804 5808 5811 5815 5817 5818 5822 5827 5828 5830 5831 5835 5839 5841 5843 5842 5845 5849 5853 5856 5859 5861 5862 5867 5869 5871 5872
5776 5776 5776 5777 5778 5779 5779 5780 5780 5780 5781 5783 5785 5787 5787 5788 5790 5793 5799 5803 5807 5809 5812 5814 5818 5820 5821 5822 5823 5826 5829 5833 5836 5840 5843 5848 5851 5853 5856 5858 5859 5861 5863 5864
5771 5771 5771 5770 5772 5773 5775 5775 5776 5776 5776 5778 5778 5779 5781 5783 5783 5784 5789 5794 5797 5800 5801 5805 5808 5809 5808 5812 5814 5816 5819 5823 5827 5832 5835 5838 5840 5842 5844 5846 5848 5850 5852 5855
5767 5767 5767 5766 5766 5765 5767 5769 5769 5770 5770 5770 5771 5773 5774 5775 5777 5778 5779 5781 5785 5789 5790 5793 5797 5800 5801 5804 5805 5807 5811 5813 5816 5819 5822 5825 5828 5829 5832 5834 5837 5837 5839 5841
Wind_Speed
39 37 34 23 24 29 10 13 22 16 11 11 20 29 24 26 27 25 20 18 16 13 10 10 8 8 5 5 11 10 12 10 14 13 14 15 14 14 15 15 15 16 13 15
39 32 22 25 27 27 29 16 11 22 23 12 8 36 35 27 30 25 24 22 18 18 15 12 10 9 7 6 9 11 10 9 10 10 13 13 12 11 13 14 12 11 12 14
31 26 25 28 25 21 27 20 20 19 18 26 20 5 39 34 32 30 24 24 23 19 18 16 13 11 9 7 8 12 10 10 10 9 10 12 12 10 9 10 11 11 11 11
29 28 25 31 25 22 23 18 14 14 14 11 20 15 25 35 33 30 27 22 22 21 22 20 16 16 13 11 10 10 14 11 9 9 9 8 11 11 8 7 10 10 8 8
22 23 25 30 24 22 26 29 10 7 11 3 11 12 12 34 41 36 31 30 25 26 23 21 21 17 14 13 12 10 12 14 12 12 11 8 8 8 8 9 8 7 6 5
27 27 31 25 19 14 22 25 24 4 6 11 9 8 9 16 40 38 40 33 28 24 26 26 25 20 18 15 14 14 11 13 15 12 13 11 9 9 7 7 9 8 6 5
29 28 24 22 22 21 20 17 17 8 6 12 16 9 6 13 24 36 36 35 32 26 27 25 28 23 18 18 15 15 14 11 13 14 12 12 10 8 9 9 8 7 6 6
25 29 24 25 28 23 19 13 15 10 2 8 15 8 12 8 14 30 44 42 38 36 32 28 29 24 22 22 17 14 15 14 13 12 12 12 12 9 9 9 10 10 10 9
25 23 20 9 13 16 23 17 21 17 17 14 13 22 17 15 11 21 29 39 45 47 35 31 29 25 26 23 21 18 18 17 15 16 14 10 10 10 8 10 10 10 11 11
21 24 26 21 11 17 19 21 20 23 16 13 14 19 20 3 10 13 20 35 47 43 38 37 35 24 27 25 23 20 22 18 17 15 16 15 14 11 10 10 10 10 10 10
19 20 17 17 13 14 17 19 10 11 9 4 12 12 17 23 15 6 4 28 40 44 36 31 32 32 31 28 25 25 23 22 19 18 17 16 16 15 12 10 11 10 10 10
14 22 22 22 20 14 14 24 20 20 12 11 12 6 5 5 9 8 10 24 32 39 39 32 34 34 37 31 22 22 26 21 21 23 21 19 17 16 15 13 12 11 11 12
20 24 27 28 24 21 17 25 31 27 23 19 18 9 5 4 3 0 7 19 22 30 34 41 39 34 30 29 32 31 30 28 25 24 25 23 23 22 20 18 18 16 15 15
19 27 31 30 27 23 25 23 29 34 30 27 26 18 13 7 1 4 14 11 18 19 14 23 33 34 34 31 34 26 32 30 26 27 27 26 23 22 23 21 22 21 20 20
19 29 37 32 35 32 28 29 26 30 30 27 25 28 20 15 17 9 10 3 15 20 18 15 15 29 35 25 30 28 28 30 28 32 30 31 28 28 25 21 26 25 23 23
17 27 32 37 37 32 29 32 29 26 27 28 29 29 30 28 28 25 14 15 17 18 17 19 21 18 20 26 28 23 30 35 27 28 30 24 27 27 26 25 29 24 28 20
14 21 28 35 41 46 41 34 30 28 28 32 31 32 33 28 20 21 22 24 23 24 23 21 20 24 24 24 32 35 24 35 32 27 26 33 39 33 29 28 26 26 25 26
16 20 18 25 40 36 34 33 39 38 32 33 35 36 37 35 30 29 26 27 32 30 30 31 42 22 30 30 29 35 27 28 27 25 30 32 32 35 30 26 25 28 25 27
15 15 19 19 20 26 33 32 31 26 37 35 36 41 38 39 34 31 32 31 28 29 22 34 33 37 29 35 34 30 30 26 29 26 26 23 18 23 24 24 26 24 29 26
14 12 15 17 17 18 23 31 38 33 31 33 47 49 43 37 41 37 36 35 37 33 37 27 36 26 32 23 17 23 33 22 23 23 19 17 20 19 21 20 20 21 23 14
6 7 15 20 20 19 16 20 29 38 35 28 29 42 50 39 40 36 37 42 36 35 33 34 33 34 24 29 27 21 24 24 25 26 22 21 24 32 21 19 20 20 21 27
9 7 9 12 14 15 15 16 19 23 29 34 34 31 39 45 42 46 41 41 39 25 30 36 38 36 36 34 36 40 29 25 24 26 23 21 29 29 26 14 20 22 24 26
11 10 11 12 11 12 13 21 14 21 24 23 20 27 42 44 42 43 37 33 34 31 23 27 31 37 40 41 41 39 44 41 26 23 22 23 24 23 25 22 25 24 27 28
15 14 15 15 14 14 15 14 12 16 18 24 26 22 25 31 31 41 37 38 36 38 42 38 39 47 50 49 46 42 40 39 34 34 32 31 32 32 33 29 30 30 31 30
13 12 11 14 13 11 8 15 19 21 20 19 18 18 19 21 24 26 31 37 39 36 41 47 48 41 54 51 45 38 36 36 38 41 40 40 40 40 41 40 39 38 38 36
11 10 9 10 10 11 10 11 13 15 17 17 19 20 22 23 25 26 26 24 23 35 29 35 36 38 45 49 43 35 36 36 38 40 39 41 43 44 45 47 46 45 45 44
Wind_Direction
221 215 216 222 210 210 177 219 223 229 207 235 230 202 215 212 217 217 212 214 188 195 172 189 157 133 139 132 136 122 110 110 102 111 107 102 112 110 105 106 111 114 103 101
218 219 209 211 208 211 196 228 253 255 272 277 209 206 214 220 214 220 217 214 202 187 183 201 173 164 163 140 130 130 119 124 116 114 119 121 113 111 113 112 106 100 102 114
209 208 204 204 206 222 218 208 236 271 271 284 286 256 211 218 219 219 218 210 204 187 183 195 193 176 181 163 140 128 138 131 126 118 121 129 119 117 118 128 111 112 102 102
195 200 200 199 195 217 223 202 228 268 258 258 268 276 214 216 222 215 208 213 211 206 193 190 203 184 199 175 155 159 143 146 141 129 120 114 127 127 123 119 116 119 112 102
178 188 196 200 194 208 223 221 219 242 235 234 266 267 248 215 222 234 226 215 211 207 201 196 205 194 201 195 166 161 156 151 157 147 144 153 140 130 140 131 119 136 122 106
172 185 189 189 206 209 224 233 230 244 234 214 255 281 246 225 216 235 222 229 222 204 207 201 208 205 196 206 181 173 177 158 156 160 163 158 166 151 153 148 142 142 145 137
166 174 182 185 199 205 225 238 238 256 261 248 236 239 203 211 213 210 212 221 217 223 212 208 206 206 198 207 199 185 178 182 165 169 163 167 178 170 173 170 173 160 173 178
169 163 190 201 208 214 217 242 247 228 281 312 218 274 253 237 211 213 215 212 211 211 215 210 191 202 212 205 197 202 189 181 188 184 169 166 174 173 174 177 172 172 182 197
169 171 183 183 203 219 228 245 255 270 275 287 267 273 5 251 258 215 217 212 200 213 204 203 202 202 213 214 200 200 204 183 193 196 183 183 181 187 190 186 202 186 194 187
171 169 180 172 205 205 208 223 246 266 283 273 282 283 288 205 261 237 235 203 200 206 198 201 201 196 204 216 212 209 208 205 195 211 200 187 194 191 196 199 205 207 205 204
184 171 200 187 175 224 234 213 224 237 260 283 270 273 311 283 335 308 188 194 188 196 197 206 209 210 207 205 223 205 217 205 213 208 220 205 195 196 205 214 227 223 223 216
187 174 192 194 188 174 206 228 221 227 228 247 267 265 342 318 327 314 222 197 193 200 200 204 211 211 214 208 216 216 218 205 216 219 218 220 215 207 201 212 231 230 230 236
197 188 184 197 196 173 177 209 223 225 225 236 250 228 252 287 21 88 244 202 183 207 210 203 210 210 221 216 218 221 229 227 222 223 222 219 220 222 219 216 221 223 228 233
204 204 192 197 203 195 194 207 218 220 228 232 240 252 239 246 104 61 175 215 206 195 191 224 214 208 220 229 215 224 231 235 227 224 225 223 223 232 235 232 233 233 232 235
215 210 211 209 212 214 210 206 217 219 222 224 229 231 223 219 225 205 195 263 240 211 199 192 210 220 220 219 214 228 234 220 222 227 230 232 233 227 231 235 234 238 240 241
231 216 218 227 232 226 214 215 213 220 218 220 218 220 228 232 239 224 219 230 224 221 223 185 198 207 198 215 234 245 250 215 223 225 221 223 227 237 225 230 236 241 238 250
220 213 219 221 228 235 233 234 232 231 218 220 221 217 228 230 225 242 222 231 227 226 229 228 210 211 213 225 229 235 224 213 224 224 226 230 239 221 223 227 229 234 241 247
245 235 232 228 226 233 232 231 244 246 233 220 224 223 221 232 228 227 228 231 235 231 232 241 223 207 219 224 233 240 228 233 239 235 224 225 229 232 225 230 235 238 240 247
266 256 244 241 232 243 244 236 232 232 223 227 226 229 227 227 239 230 231 234 246 239 244 251 229 221 220 234 236 233 241 233 210 221 243 251 244 227 231 234 242 246 247 247
264 240 233 244 249 249 250 244 237 230 227 233 230 221 228 229 236 241 237 238 239 245 240 247 239 231 229 237 213 216 209 200 211 225 218 227 250 250 240 236 245 248 237 235
229 236 242 250 247 257 266 249 253 241 243 242 234 217 223 226 232 230 233 240 249 251 255 249 256 248 251 250 253 243 232 220 214 223 228 229 231 239 211 230 238 242 243 226
255 265 266 268 263 257 254 251 250 253 251 248 246 245 236 233 236 236 239 242 251 272 261 250 253 259 261 256 246 254 248 229 238 247 255 245 247 237 267 250 253 251 246 244
256 269 265 270 275 253 262 242 254 242 243 241 256 264 255 255 240 237 226 240 249 252 236 257 265 266 263 255 245 241 243 240 235 247 253 258 258 259 256 245 246 243 246 251
269 264 264 260 253 250 250 255 261 266 259 256 263 267 262 261 267 260 241 247 255 250 256 256 269 266 257 254 256 247 239 241 250 250 243 243 244 244 246 246 245 248 251 252
278 279 272 266 269 271 242 249 257 256 256 251 250 249 246 255 261 260 259 257 258 258 256 256 255 273 248 243 238 237 246 249 248 246 248 249 249 250 252 254 253 253 254 255
279 288 279 270 284 289 285 270 259 253 250 247 247 249 248 247 248 251 259 261 263 249 270 265 248 245 237 238 234 240 244 248 250 255 256 257 256 254 254 254 255 255 257 258